4P/Faye (2021)

Japanese version
Home page
Updated on September 11, 2022

---------------------------------------------------------------------

* Profile

* Pictures

* Orbital Elements

Epoch 2022 Jan. 21.0 TT = JDT 2459600.5
T 2021 Sept. 8.84473 TT                                 Rudenko
q   1.6189103            (2000.0)            P               Q
n   0.13180037     Peri.  207.00527     +0.76775518     -0.63998446
a   3.8240624      Node   192.93052     +0.61016172     +0.74509744
e   0.5766517      Incl.    8.00832     +0.19558798     +0.18774902
P   7.48
From 6438 observations 1998 May 24-2022 Feb. 12, mean residual 0".9.
     Nongravitational parameters A1 = +0.54, A2 = -0.0289.

* Finding Charts

* Magnitudes Graph

        m1 =   5.5 + 5 log d + 21.0 log r  [   ,240]  (             - 2022 May   7)
        m1 =  10.3 + 5 log d + 10.0 log r  [240,   ]  (2022 May   7 -             )

---------------------------------------------------------------------

The orbital elements are published on M.P.E.C. 2022-C234.
The charts are made with StellaNavigator Ver.10 (AstroArts).
The magnitudes graphs are made with Comet for Windows.

---------------------------------------------------------------------

Copyright(C) Seiichi Yoshida (comet@aerith.net). All rights reserved.